EW8744 Weather Reports


Display with metric or nautical units.
time (UTC)temp
F
wind
direction
speed
MPH
gust
MPH
rain 1hr
in
rain 24hr
in
rain mn
in
humidity
%
barometer
mb
20260506043820 66 0.0 0.0 0.00 0.00 0.00 75 1007.3
20260506043318 67 0.0 0.0 0.00 0.00 0.00 74 1007.4
20260506042729 67 0.0 0.0 0.00 0.00 0.00 74 1007.4
20260506042216 67 0.0 0.0 0.00 0.00 0.00 73 1007.3
20260506041716 67 0.0 0.0 0.00 0.00 0.00 73 1007.3
20260506041155 68 0.0 0.0 0.00 0.00 0.00 73 1007.3
20260506040649 68 0.0 0.0 0.00 0.00 0.00 73 1007.4
20260506040127 68 0.0 0.0 0.00 0.00 0.00 73 1007.4
20260506035625 69 0.0 0.0 0.00 0.00 0.00 73 1007.3
20260506035125 69 0.0 0.0 0.00 0.00 0.00 73 1007.2
20260506034622 69 0.0 0.0 0.00 0.00 0.00 73 1007.1
20260506034110 69 0.0 0.0 0.00 0.00 0.00 73 1007.0
20260506033527 69 0.0 0.0 0.00 0.00 0.00 73 1006.9
20260506033024 69 0.0 0.0 0.00 0.00 0.00 72 1006.7
20260506032500 69 0.0 0.0 0.00 0.00 0.00 72 1006.7
20260506031925 69 0.0 0.0 0.00 0.00 0.00 72 1006.6
20260506031423 70 0.0 0.0 0.00 0.00 0.00 72 1006.3
20260506030851 70 0.0 0.0 0.00 0.00 0.00 71 1006.3
20260506030328 70 0.0 0.0 0.00 0.00 0.00 71 1006.2
20260506025826 70 0.0 0.0 0.00 0.00 0.00 71 1005.9
20260506025542 70 0.0 0.0 0.00 0.00 0.00 70 1005.7
20260506024820 71 0.0 0.0 0.00 0.00 0.00 70 1005.7
20260506024314 71 0.0 0.0 0.00 0.00 0.00 69 1005.9
20260506023813 71 0.0 0.0 0.00 0.00 0.00 69 1005.9
20260506023523 71 0.0 0.0 0.00 0.00 0.00 70 1005.7
20260506022743 72 0.0 0.0 0.00 0.00 0.00 70 1005.6
20260506022458 72 0.0 0.0 0.00 0.00 0.00 70 1005.4
20260506021725 73 0.0 0.0 0.00 0.00 0.00 69 1005.1
20260506021224 73 0.0 0.0 0.00 0.00 0.00 68 1005.2
20260506020722 73 0.0 0.0 0.00 0.00 0.00 68 1005.1
20260506020152 74 0.0 0.0 0.00 0.00 0.00 67 1005.1
20260506015626 74 0.0 0.0 0.00 0.00 0.00 67 1004.9
20260506015342 75 0.0 0.0 0.00 0.00 0.00 66 1004.6
20260506014538 75 0.0 0.0 0.00 0.00 0.00 66 1004.6
20260506014022 76 0.0 0.0 0.00 0.00 0.00 65 1004.4
20260506013505 76 0.0 0.0 0.00 0.00 0.00 65 1004.2
20260506012935 77 0.0 0.0 0.00 0.00 0.00 64 1004.0
20260506012425 78 0.0 0.0 0.00 0.00 0.00 64 1003.7
20260506011925 78 0 0.0 1.0 0.00 0.00 0.00 64 1003.8
20260506011641 79 0 0.0 1.0 0.00 0.00 0.00 62 1004.0
20260506010903 80 0 0.0 4.0 0.00 0.00 0.00 61 1003.7
20260506010400 81 0 0.0 4.0 0.00 0.00 0.00 60 1003.6
20260506005900 82 0 0.0 4.0 0.00 0.00 0.00 58 1003.6
20260506005614 83 0 0.0 4.0 0.00 0.00 0.00 56 1003.5
20260506005117 84 0 0.0 3.0 0.00 0.00 0.00 54 1003.4
20260506004600 85 0 0.0 3.0 0.00 0.00 0.00 52 1003.3
20260506004058 87 0 0.0 2.0 0.00 0.00 0.00 50 1003.2
20260506003338 88 0 0.0 1.0 0.00 0.00 0.00 51 1003.2
20260506003311 88 0 0.0 2.0 0.00 0.00 0.00 49 1003.0
20260506002317 89 0 0.0 2.0 0.00 0.00 0.00 49 1002.9
20260506001812 89 0 0.0 3.0 0.00 0.00 0.00 48 1003.0
20260506001306 89 0 1.0 3.0 0.00 0.00 0.00 47 1003.0
20260506000803 90 0 1.0 4.0 0.00 0.00 0.00 46 1002.9
20260506000303 90 0 1.0 4.0 0.00 0.00 0.00 47 1003.0
20260505235803 90 0 2.0 5.0 0.00 0.00 0.00 47 1003.0
20260505235524 90 0 2.0 5.0 0.00 0.00 0.00 45 1003.1
20260505234803 90 0 2.0 6.0 0.00 0.00 0.00 45 1003.0
20260505234303 90 0 2.0 8.0 0.00 0.00 0.00 46 1002.9
20260505234024 91 0 2.0 8.0 0.00 0.00 0.00 46 1002.7
20260505233300 91 0 2.0 8.0 0.00 0.00 0.00 46 1002.7
20260505232800 91 0 3.0 8.0 0.00 0.00 0.00 45 1002.7
20260505232523 91 0 2.0 6.0 0.00 0.00 0.00 45 1002.6
20260505231757 91 0 3.0 6.0 0.00 0.00 0.00 45 1002.6
20260505231736 91 0 2.0 6.0 0.00 0.00 0.00 46 1002.6
20260505230754 91 0 2.0 5.0 0.00 0.00 0.00 46 1002.7
20260505230303 91 0 3.0 9.0 0.00 0.00 0.00 47 1002.7
20260505225752 91 0 3.0 9.0 0.00 0.00 0.00 47 1002.7
20260505225251 92 0 3.0 8.0 0.00 0.00 0.00 45 1002.7
20260505224752 92 0 3.0 8.0 0.00 0.00 0.00 46 1002.7
20260505224251 92 0 3.0 8.0 0.00 0.00 0.00 46 1002.7
20260505223752 92 0 2.0 6.0 0.00 0.00 0.00 46 1002.7
20260505223508 92 0 2.0 6.0 0.00 0.00 0.00 48 1002.7
20260505222740 92 0 1.0 4.0 0.00 0.00 0.00 48 1002.7
20260505222234 92 0 2.0 5.0 0.00 0.00 0.00 47 1002.7
20260505221728 92 0 2.0 5.0 0.00 0.00 0.00 47 1002.7
20260505221222 92 0 2.0 5.0 0.00 0.00 0.00 47 1002.6
20260505220716 92 0 3.0 6.0 0.00 0.00 0.00 47 1002.6
20260505220210 92 0 3.0 9.0 0.00 0.00 0.00 46 1002.6
20260505215704 92 0 3.0 9.0 0.00 0.00 0.00 45 1002.8
20260505215158 92 0 4.0 11.0 0.00 0.00 0.00 45 1002.6
20260505214658 92 0 3.0 11.0 0.00 0.00 0.00 45 1002.7
20260505214419 92 0 3.0 9.0 0.00 0.00 0.00 48 1002.8
20260505213654 92 0 3.0 9.0 0.00 0.00 0.00 48 1002.8
20260505213156 91 0 3.0 8.0 0.00 0.00 0.00 48 1002.7
20260505212656 92 0 3.0 8.0 0.00 0.00 0.00 48 1002.7
20260505212156 92 0 3.0 10.0 0.00 0.00 0.00 47 1002.8
20260505211656 92 0 3.0 10.0 0.00 0.00 0.00 46 1002.7
20260505211155 92 0 3.0 9.0 0.00 0.00 0.00 46 1002.7
20260505210652 91 0 2.0 6.0 0.00 0.00 0.00 51 1002.8
20260505210154 91 0 3.0 6.0 0.00 0.00 0.00 48 1003.1
20260505205654 91 0 3.0 9.0 0.00 0.00 0.00 47 1003.2
20260505205151 91 0 3.0 9.0 0.00 0.00 0.00 47 1003.1
20260505204651 91 0 3.0 9.0 0.00 0.00 0.00 51 1003.3
20260505204152 90 0 5.0 11.0 0.00 0.00 0.00 50 1003.4
20260505203908 90 0 5.0 11.0 0.00 0.00 0.00 48 1003.3
20260505203149 90 0 4.0 11.0 0.00 0.00 0.00 49 1003.3
20260505202647 90 0 4.0 12.0 0.00 0.00 0.00 48 1003.4
20260505202150 90 0 4.0 12.0 0.00 0.00 0.00 48 1003.4
20260505201648 90 0 4.0 12.0 0.00 0.00 0.00 48 1003.5
20260505201146 90 0 4.0 11.0 0.00 0.00 0.00 53 1003.6
20260505200645 89 0 4.0 11.0 0.00 0.00 0.00 52 1003.8
20260505200158 89 0 4.0 11.0 0.00 0.00 0.00 51 1003.9
20260505195645 89 0 4.0 11.0 0.00 0.00 0.00 52 1003.8
20260505195147 89 0 5.0 17.0 0.00 0.00 0.00 53 1003.8
20260505194644 89 0 5.0 17.0 0.00 0.00 0.00 51 1003.9
20260505194147 89 0 5.0 12.0 0.00 0.00 0.00 53 1003.8
20260505193645 90 0 6.0 12.0 0.00 0.00 0.00 52 1003.9
20260505193424 90 0 5.0 12.0 0.00 0.00 0.00 53 1004.0
20260505192646 89 0 4.0 11.0 0.00 0.00 0.00 55 1003.9
20260505192145 89 0 4.0 11.0 0.00 0.00 0.00 55 1004.1
20260505191645 89 0 5.0 11.0 0.00 0.00 0.00 54 1004.1
20260505191146 89 0 5.0 11.0 0.00 0.00 0.00 57 1004.1
20260505190644 89 0 5.0 11.0 0.00 0.00 0.00 57 1004.1
20260505190422 89 0 5.0 11.0 0.00 0.00 0.00 57 1004.1
20260505185644 89 0 5.0 11.0 0.00 0.00 0.00 54 1004.2
20260505185146 89 0 5.0 11.0 0.00 0.00 0.00 57 1004.2
20260505184646 88 0 6.0 12.0 0.00 0.00 0.00 57 1004.3
20260505184148 88 0 6.0 12.0 0.00 0.00 0.00 59 1004.3
20260505183645 87 0 6.0 13.0 0.00 0.00 0.00 58 1004.3
20260505183155 87 0 5.0 13.0 0.00 0.00 0.00 59 1004.4
20260505182904 87 0 5.0 13.0 0.00 0.00 0.00 59 1004.4
20260505182146 87 0 5.0 13.0 0.00 0.00 0.00 60 1004.4
20260505181645 87 0 4.0 11.0 0.00 0.00 0.00 61 1004.4
20260505181147 86 0 5.0 13.0 0.00 0.00 0.00 61 1004.4
20260505181126 86 0 5.0 13.0 0.00 0.00 0.00 60 1004.4
20260505180145 85 0 5.0 14.0 0.00 0.00 0.00 64 1004.4
20260505175645 85 0 5.0 14.0 0.00 0.00 0.00 63 1004.5
20260505175145 85 0 5.0 16.0 0.00 0.00 0.00 65 1004.5
20260505174642 85 0 5.0 16.0 0.00 0.00 0.00 63 1004.6
20260505174143 84 0 5.0 13.0 0.00 0.00 0.00 64 1004.8
20260505173640 84 0 6.0 13.0 0.00 0.00 0.00 67 1004.8
20260505173142 84 0 5.0 13.0 0.00 0.00 0.00 66 1004.8
20260505172638 84 0 5.0 15.0 0.00 0.00 0.00 66 1004.5
20260505172140 83 0 5.0 15.0 0.00 0.00 0.00 67 1004.6
20260505171636 83 0 6.0 14.0 0.00 0.00 0.00 68 1004.8
20260505171137 82 0 5.0 14.0 0.00 0.00 0.00 68 1004.6
20260505170635 82 0 5.0 15.0 0.00 0.00 0.00 69 1004.8
20260505170356 81 0 6.0 15.0 0.00 0.00 0.00 69 1004.8
20260505165857 81 0 6.0 15.0 0.00 0.00 0.00 71 1004.8
20260505165352 81 0 6.0 15.0 0.00 0.00 0.00 70 1004.8
20260505164626 80 0 6.0 14.0 0.00 0.00 0.00 70 1004.8
20260505164121 80 0 6.0 14.0 0.00 0.00 0.00 71 1004.8
20260505163615 80 0 7.0 14.0 0.00 0.00 0.00 71 1004.8
20260505163109 80 0 7.0 15.0 0.00 0.00 0.00 72 1004.6
20260505162602 80 0 6.0 18.0 0.00 0.00 0.00 72 1004.6
20260505162056 80 0 6.0 18.0 0.00 0.00 0.00 72 1004.5
20260505161555 80 0 6.0 15.0 0.00 0.00 0.00 71 1004.5
20260505161306 80 0 6.0 15.0 0.00 0.00 0.00 72 1004.4
20260505160535 79 0 6.0 15.0 0.00 0.00 0.00 73 1004.5
20260505152953 78 0 6.0 16.0 0.00 0.00 0.00 76 1004.6
20260505152943 77 0 7.0 17.0 0.00 0.00 0.00 76 1004.5
20260505152142 77 0 7.0 16.0 0.00 0.00 0.00 78 1004.6
20260505152032 77 0 8.0 17.0 0.00 0.00 0.00 77 1004.5
20260505150929 76 0 6.0 17.0 0.00 0.00 0.00 79 1004.6
20260505150423 76 0 6.0 14.0 0.00 0.00 0.00 82 1004.6
20260505140311 71 0 4.0 13.0 0.00 0.00 0.00 89 1004.3
20260505130306 68 0 4.0 10.0 0.00 0.00 0.00 94 1004.0
20260505124801 67 0 5.0 11.0 0.00 0.00 0.00 94 1003.9
20260505124300 67 0 5.0 11.0 0.00 0.00 0.00 94 1003.8
20260505124236 67 0 5.0 10.0 0.00 0.00 0.00 94 1003.8
20260505123253 67 0 5.0 10.0 0.00 0.00 0.00 94 1003.7
20260505122754 67 0.0 0.0 0.00 0.00 0.00 94 1003.8
20260505122233 67 0.0 0.0 0.00 0.00 0.00 94 1003.6
20260505121723 67 0.0 0.0 0.00 0.00 0.00 94 1003.6
20260505121221 67 0.0 0.0 0.00 0.00 0.00 94 1003.3
20260505120655 67 0.0 0.0 0.00 0.00 0.00 94 1003.5
20260505120153 67 0.0 0.0 0.00 0.00 0.00 94 1003.5
20260505115635 67 0.0 0.0 0.00 0.00 0.00 94 1003.5
20260505115400 66 0.0 0.0 0.00 0.00 0.00 93 1003.5
20260505114626 66 0.0 0.0 0.00 0.00 0.00 93 1003.5
20260505114122 67 0.0 0.0 0.00 0.00 0.00 93 1003.4
20260505113621 67 0.0 0.0 0.00 0.00 0.00 93 1003.4
20260505113100 67 0.0 0.0 0.00 0.00 0.00 93 1003.3
20260505112821 67 0.0 0.0 0.00 0.00 0.00 93 1003.1
20260505112030 67 0.0 0.0 0.00 0.00 0.00 93 1003.2
20260505111525 67 0.0 0.0 0.00 0.00 0.00 93 1003.3
20260505110942 67 0.0 0.0 0.00 0.00 0.00 93 1003.4
20260505110423 67 0.0 0.0 0.00 0.00 0.00 93 1003.3
20260505110143 67 0.0 0.0 0.00 0.00 0.00 93 1003.2
20260505102217 67 0.0 0.0 0.00 0.00 0.00 93 1003.3
20260505102157 67 0.0 0.0 0.00 0.00 0.00 92 1003.3
20260505101201 67 0.0 0.0 0.00 0.00 0.00 92 1003.2
20260505100653 67 0.0 0.0 0.00 0.00 0.00 92 1003.2
20260505100137 67 0.0 0.0 0.00 0.00 0.00 92 1003.3
20260505095845 67 0.0 0.0 0.00 0.00 0.00 92 1003.3
20260505095123 67 0.0 0.0 0.00 0.00 0.00 92 1003.4
20260505095104 67 0.0 0.0 0.00 0.00 0.00 92 1003.4
20260505094117 67 0.0 0.0 0.00 0.00 0.00 91 1003.4
20260505093611 67 0.0 0.0 0.00 0.00 0.00 91 1003.5
20260505093033 67 0.0 0.0 0.00 0.00 0.00 91 1003.7
20260505092526 67 0.0 0.0 0.00 0.00 0.00 91 1003.6
20260505092023 67 0.0 0.0 0.00 0.00 0.00 91 1003.7
20260505091523 67 0.0 0.0 0.00 0.00 0.00 90 1003.8
20260505091245 68 0.0 0.0 0.00 0.00 0.00 91 1003.7
20260505090522 68 0.0 0.0 0.00 0.00 0.00 90 1003.7
20260505090020 68 0.0 0.0 0.00 0.00 0.00 90 1003.7
20260505085521 68 0.0 0.0 0.00 0.00 0.00 90 1003.7
20260505085008 68 0.0 0.0 0.00 0.00 0.00 89 1003.8
20260505084451 68 0.0 0.0 0.00 0.00 0.00 89 1003.8
20260505083947 68 0.0 0.0 0.00 0.00 0.00 89 1003.9
20260505083431 68 0.0 0.0 0.00 0.00 0.00 89 1003.9
20260505082923 68 0.0 0.0 0.00 0.00 0.00 89 1004.0
20260505082424 69 0.0 0.0 0.00 0.00 0.00 88 1004.0
20260505081921 69 0.0 0.0 0.00 0.00 0.00 88 1004.0
20260505081632 69 0.0 0.0 0.00 0.00 0.00 88 1003.8
20260505080853 69 0.0 0.0 0.00 0.00 0.00 87 1003.9
20260505080331 69 0.0 0.0 0.00 0.00 0.00 87 1004.1
20260505075820 69 0.0 0.0 0.00 0.00 0.00 87 1004.0
20260505075321 69 0.0 0.0 0.00 0.00 0.00 86 1004.0
20260505074821 69 0.0 0.0 0.00 0.00 0.00 86 1004.1
20260505074304 69 0.0 0.0 0.00 0.00 0.00 86 1004.2
20260505073805 69 0.0 0.0 0.00 0.00 0.00 86 1004.2
20260505073451 69 0.0 0.0 0.00 0.00 0.00 85 1004.3
20260505072724 70 0.0 0.0 0.00 0.00 0.00 85 1004.4
20260505072223 70 0.0 0.0 0.00 0.00 0.00 84 1004.6
20260505071722 70 0.0 0.0 0.00 0.00 0.00 84 1004.5
20260505071220 70 0.0 0.0 0.00 0.00 0.00 84 1004.6
20260505070715 70 0.0 0.0 0.00 0.00 0.00 84 1004.6
20260505070201 70 0.0 0.0 0.00 0.00 0.00 84 1004.6
20260505065642 70 0.0 0.0 0.00 0.00 0.00 83 1004.8
20260505065124 70 0.0 0.0 0.00 0.00 0.00 83 1004.9
20260505064624 70 0.0 0.0 0.00 0.00 0.00 83 1004.8
20260505064113 70 0.0 0.0 0.00 0.00 0.00 82 1005.0
20260505063604 70 0.0 0.0 0.00 0.00 0.00 82 1005.2
20260505063031 70 0.0 0.0 0.00 0.00 0.00 81 1005.1
20260505062754 70 0.0 0.0 0.00 0.00 0.00 81 1005.1
20260505062024 70 0.0 0.0 0.00 0.00 0.00 80 1005.3
20260505061519 71 0.0 0.0 0.00 0.00 0.00 80 1005.2
20260505061226 71 0.0 0.0 0.00 0.00 0.00 79 1005.3
20260505060446 71 0.0 0.0 0.00 0.00 0.00 78 1005.3
20260505055944 71 0.0 0.0 0.00 0.00 0.00 78 1005.3
20260505055436 71 0.0 0.0 0.00 0.00 0.00 78 1005.3
20260505055136 72 0.0 0.0 0.00 0.00 0.00 77 1005.3
20260505054405 72 0.0 0.0 0.00 0.00 0.00 77 1005.3
20260505054120 72 0.0 0.0 0.00 0.00 0.00 77 1005.4
20260505053328 72 0.0 0.0 0.00 0.00 0.00 77 1005.4
20260505052825 72 0.0 0.0 0.00 0.00 0.00 76 1005.4
20260505052324 72 0.0 0.0 0.00 0.00 0.00 76 1005.3
20260505051815 72 0.0 0.0 0.00 0.00 0.00 76 1005.3
20260505051313 72 0.0 0.0 0.00 0.00 0.00 75 1005.2
20260505050802 72 0.0 0.0 0.00 0.00 0.00 75 1005.2
20260505050252 72 0.0 0.0 0.00 0.00 0.00 75 1005.3